Tracking 27086 objects as of 22-Mar-2023
HD Live streaming from Space Station
objects crossing your sky now

COSMOS 1275 DEB

Track COSMOS 1275 DEB now!
10-day predictions


NORAD ID: 42209
Int'l Code: 1981-053TZ
Perigee: 910.5 km
Apogee: 989.9 km
Inclination: 82.9 °
Period: 103.9 minutes
Semi major axis: 7321 km
RCS: Unknown
Launch date: June 4, 1981
Source: Commonwealth of Independent States (former USSR) (CIS)
Launch site: PLESETSK MISSILE AND SPACE COMPLEX (PKMTR)

Note: This is SATELLITE DEBRIS
Your satellite tracking list
Your tracking list is empty




NASA's NSSDC Master Catalog

Two Line Element Set (TLE):
1 42209U 81053TZ  23078.15927432  .00001304  00000-0  11102-2 0  9992
2 42209  82.8786 218.9704 0054199  13.3172 160.6163 13.85897369471198
Source of the keplerian elements: AFSPC